Location: Maccacari
(45.1333°N, 11.1333°E)
Time: 07:01:28
(UTC+00:00)

SR - Pass Details

Date: 24 January 2021
Orbit: 573 x 882 km, 66.7° (Epoch: 04 March)

Event Time Altitude Azimuth Distance (km) Brightness Sun altitude
Exits shadow 05:30:09 19° 292° (WNW) 1,699 ? -13.0°
Maximum altitude 05:31:59 23° 321° (NW) 1,562 ? -12.7°
Drops below altitude 10° 05:36:09 10° 13° (NNE) 2,339 ? -12.0°
Sets 05:39:11 0° 28° (NNE) 3,328 ? -11.5°
